EW7893 Weather Reports


Display with metric or nautical units.
time (UTC)temp
F
wind
direction
speed
MPH
gust
MPH
rain 1hr
in
rain 24hr
in
rain mn
in
humidity
%
barometer
mb
20260505124543 67 221 5.0 10.0 0.00 0.00 0.00 59 1011.3
20260505123052 67 133 2.0 8.0 0.00 0.00 0.00 60 1011.2
20260505121507 66 255 3.0 7.0 0.00 0.00 0.00 61 1011.3
20260505120302 66 128 2.0 10.0 0.00 0.00 0.00 63 1011.2
20260505120100 65 152 1.0 10.0 0.00 0.00 0.00 63 1011.2
20260505114505 63 192 1.0 8.0 0.00 0.00 0.00 66 1011.3
20260505113024 62 202 2.0 5.0 0.00 0.00 0.00 68 1011.3
20260505111538 60 276 0.0 3.0 0.00 0.00 0.00 70 1011.4
20260505101554 57 245 0.0 1.0 0.00 0.00 0.00 74 1011.3
20260505100340 57 239 0.0 2.0 0.00 0.00 0.00 74 1011.1
20260505100044 57 198 0.0 1.0 0.00 0.00 0.00 74 1010.9
20260505094552 57 214 0.0 2.0 0.00 0.00 0.00 73 1010.5
20260505093058 57 223 0.0 4.0 0.00 0.00 0.00 73 1010.2
20260505091511 57 231 0.0 2.0 0.00 0.00 0.00 73 1010.2
20260505090022 57 221 0.0 4.0 0.00 0.00 0.00 73 1010.3
20260505084527 57 285 0.0 3.0 0.00 0.00 0.00 72 1010.3
20260505083035 57 156 0.0 4.0 0.00 0.00 0.00 71 1010.3
20260505081605 57 224 0.0 4.0 0.00 0.00 0.00 71 1010.3
20260505080310 58 212 1.0 3.0 0.00 0.00 0.00 71 1010.4
20260505080058 57 196 0.0 4.0 0.00 0.00 0.00 71 1010.3
20260505074505 57 207 0.0 3.0 0.00 0.00 0.00 71 1010.3
20260505073023 57 219 0.0 2.0 0.00 0.00 0.00 70 1010.3
20260505071536 57 193 0.0 2.0 0.00 0.00 0.00 70 1010.2
20260505070059 57 145 0.0 2.0 0.00 0.00 0.00 70 1010.1
20260505064559 57 225 0.0 1.0 0.00 0.00 0.00 69 1010.3
20260505063101 58 223 0.0 1.0 0.00 0.00 0.00 68 1010.2
20260505061519 59 170 0.0 3.0 0.00 0.00 0.00 66 1010.3
20260505060318 60 201 1.0 3.0 0.00 0.00 0.00 66 1010.3
20260505060040 59 174 0.0 4.0 0.00 0.00 0.00 65 1010.3
20260505054533 60 157 0.0 5.0 0.00 0.00 0.00 64 1010.3
20260505053039 60 145 0.0 5.0 0.00 0.00 0.00 64 1010.4
20260505051606 60 188 1.0 5.0 0.00 0.00 0.00 63 1010.4
20260505041505 60 226 2.0 5.0 0.00 0.00 0.00 62 1010.7
20260505040319 61 72 1.0 5.0 0.00 0.00 0.00 61 1010.9
20260505040004 60 195 1.0 5.0 0.00 0.00 0.00 61 1010.9
20260505034527 61 186 1.0 6.0 0.00 0.00 0.00 60 1010.9
20260505033048 61 143 1.0 5.0 0.00 0.00 0.00 60 1010.8
20260505031558 61 206 1.0 6.0 0.00 0.00 0.00 59 1011.0
20260505030016 61 210 2.0 6.0 0.00 0.00 0.00 57 1011.1
20260505024532 62 166 3.0 11.0 0.00 0.00 0.00 56 1011.1
20260505023041 62 155 2.0 8.0 0.00 0.00 0.00 55 1011.2
20260505021559 62 153 2.0 9.0 0.00 0.00 0.00 54 1011.3
20260505020306 63 158 3.0 6.0 0.00 0.00 0.00 53 1011.3
20260505020059 63 99 2.0 11.0 0.00 0.00 0.00 53 1011.2
20260505014513 63 197 1.0 6.0 0.00 0.00 0.00 53 1011.1
20260505013026 64 240 3.0 7.0 0.00 0.00 0.00 51 1011.1
20260505011535 64 139 4.0 8.0 0.00 0.00 0.00 50 1010.9
20260505010043 65 212 3.0 8.0 0.00 0.00 0.00 51 1010.7
20260505004600 66 131 4.0 8.0 0.00 0.00 0.00 46 1010.4
20260505003015 67 207 1.0 5.0 0.00 0.00 0.00 39 1010.3
20260505001527 68 167 2.0 5.0 0.00 0.00 0.00 38 1010.0
20260505000310 69 198 1.0 7.0 0.00 0.00 0.00 38 1009.8
20260505000024 68 161 1.0 7.0 0.00 0.00 0.00 37 1009.7
20260504234525 69 207 0.0 6.0 0.00 0.00 0.00 37 1009.6
20260504233043 70 217 3.0 9.0 0.00 0.00 0.00 36 1009.3
20260504231559 71 150 3.0 9.0 0.00 0.00 0.00 34 1009.3
20260504230018 72 266 3.0 8.0 0.00 0.00 0.00 33 1009.1
20260504224527 73 150 3.0 8.0 0.00 0.00 0.00 33 1009.0
20260504223041 73 181 5.0 15.0 0.00 0.00 0.00 32 1009.1
20260504221533 74 194 3.0 9.0 0.00 0.00 0.00 31 1009.2
20260504220305 74 270 3.0 7.0 0.00 0.00 0.00 31 1009.3
20260504220043 74 194 3.0 8.0 0.00 0.00 0.00 31 1009.2
20260504214616 74 137 3.0 10.0 0.00 0.00 0.00 31 1009.4
20260504213022 74 181 3.0 9.0 0.00 0.00 0.00 31 1009.5
20260504211534 74 205 3.0 12.0 0.00 0.00 0.00 31 1009.5
20260504210049 74 247 5.0 10.0 0.00 0.00 0.00 30 1009.5
20260504204558 74 252 5.0 13.0 0.00 0.00 0.00 30 1009.6
20260504203009 74 174 4.0 13.0 0.00 0.00 0.00 31 1009.6
20260504201528 74 115 3.0 9.0 0.00 0.00 0.00 31 1009.6
20260504200319 74 272 3.0 14.0 0.00 0.00 0.00 32 1009.7
20260504200018 74 115 4.0 14.0 0.00 0.00 0.00 32 1009.7
20260504194537 73 187 4.0 13.0 0.00 0.00 0.00 33 1009.8
20260504193118 73 209 3.0 13.0 0.00 0.00 0.00 32 1009.9
20260504191504 73 192 4.0 11.0 0.00 0.00 0.00 32 1010.1
20260504190006 73 290 3.0 13.0 0.00 0.00 0.00 32 1010.4
20260504184530 73 210 2.0 12.0 0.00 0.00 0.00 32 1010.6
20260504183036 72 214 4.0 8.0 0.00 0.00 0.00 33 1010.8
20260504181548 72 186 5.0 11.0 0.00 0.00 0.00 32 1011.1
20260504180319 71 175 6.0 12.0 0.00 0.00 0.00 33 1011.2
20260504180052 71 185 5.0 12.0 0.00 0.00 0.00 33 1011.3
20260504174504 71 203 3.0 11.0 0.00 0.00 0.00 32 1011.4
20260504173002 70 210 7.0 15.0 0.00 0.00 0.00 34 1011.6
20260504171508 70 105 6.0 13.0 0.00 0.00 0.00 34 1011.6
20260504160317 69 243 5.0 16.0 0.00 0.00 0.00 35 1012.8
20260504160111 68 181 8.0 16.0 0.00 0.00 0.00 35 1012.8
20260504140308 64 224 6.0 12.0 0.00 0.00 0.00 44 1013.6